Tracking 22882 objects as of 18-Apr-2021
HD Live streaming from Space Station
objects crossing your sky now

STARLINK-1847

Track STARLINK-1847 now!
10-day predictions
STARLINK-1847 is classified as:


NORAD ID: 46739
Int'l Code: 2020-074A
Perigee: 376.3 km
Apogee: 380.6 km
Inclination: 53.1 °
Period: 92.0 minutes
Semi major axis: 6749 km
RCS: Unknown
Launch date: October 24, 2020
Source: United States (US)
Launch site: AIR FORCE EASTERN TEST RANGE (AFETR)
aabbcc
Your satellite tracking list
Your tracking list is empty




NASA's NSSDC Master Catalog

Two Line Element Set (TLE):
1 46739U 20074A   21108.53445283  .00148356  00000-0  14227-2 0  9993
2 46739  53.0607  47.5391 0003145 200.9235 159.1651 15.65673343 27634
Source of the keplerian elements: AFSPC